STARLINK-1019

Last updated on Thu Dec 12 2019 00:02:03 GMT+0000 (Coordinated Universal Time)

1 44724U 19074M 19344.83334491 -.00023233 00000-0 -16078-3 0 9998 2 44724 53.0095 25.2220 0009014 323.8955 167.7818 15.73233812 4611
UTC large
Height (km)
Speed (km/s)
/
Latitude / Longitude
Inclination (degrees)
Orbital Period (minutes)
Azimuth
Elevation
Range (km)
Doppler Factor

Next 0 passes for location: London (51.5072 / 0.1276)

Sorry there are no passes over London.